Regional Weather Roundup
Issued by NWS Cleveland, OH

Home | Current Version | Previous Version | Graphics & Text | Print | Product List | Glossary On
Versions: 1 2 3 4 5 6 7 8 9 10 11 12 13 14 15 16 17 18 19 20 21 22 23 24 25 26 27 28 29 30 31 32 33 34 35 36 37 38 39 40 41 42 43 44 45 46 47 48 49 50
000
ASUS41 KCLE 301502
RWRCLE
OHIO REGIONAL WEATHER ROUNDUP
NATIONAL WEATHER SERVICE CLEVELAND, OH
1000 AM EST FRI JAN 30 2015

NOTE: "FAIR" INDICATES FEW OR NO CLOUDS BELOW 12,000 FEET WITH NO
SIGNIFICANT WEATHER AND/OR OBSTRUCTIONS TO VISIBILITY.

OHZ001>008-015>018-024>027-034-035-043-044-301600-
   NORTHWEST OHIO

CITY           SKY/WX    TMP DP  RH WIND       PRES   REMARKS
DEFIANCE       CLOUDY    23   9  55 N16       30.44R WCI  10
FINDLAY        SUNNY     21   8  57 N18G26    30.40R WCI   6
TOLEDO EXPRESS SUNNY     19   8  62 N14G24    30.42R WCI   6
TOLEDO EXEC    MOSUNNY   19   6  57 N16G26    30.43R WCI   4
LIMA           CLOUDY    23  11  60 N13       30.39R WCI  11
$$

OHZ009>014-019>023-028>033-038-089-301600-
   NORTHEAST OHIO

CITY           SKY/WX    TMP DP  RH WIND       PRES   REMARKS
CLE-HOPKINS    CLOUDY    17   9  70 NW23G32   30.36R WCI  -1
CLE-LAKEFRONT  CLOUDY    17   9  70 NW20G32   30.35R WCI   1
CUY CO. ARPT   NOT AVBL
LORAIN-ELYRIA  CLOUDY    16   7  67 NW17      30.36R WCI   0
ASHTABULA      LGT SNOW  18  14  84 NW13G22   30.25R FOG     WCI   5
AKRON-CANTON   LGT SNOW  18  10  71 N24G30    30.26R WCI   0
WOOSTER        CLOUDY    17   9  70 N22       30.30R WCI   0
MANSFIELD      LGT SNOW  17  10  74 NW21      30.31R WCI   0
YOUNGSTOWN     LGT SNOW  17  11  77 NW17G26   30.21R VSB 3/4 WCI   1
$$

OHZ042-051>053-060>062-070>072-077>081-301600-
  SOUTHWEST OHIO

CITY           SKY/WX    TMP DP  RH WIND       PRES   REMARKS
CINC-COVINGTON FLURRIES  27  16  63 N18       30.42R WCI  14
CINC-LUNKEN    PTSUNNY   28  13  53 N12       30.45R WCI  18
HAMILTON       FLURRIES  26  16  65 N13G22    30.46R WCI  15
DAYTON         MOSUNNY   23  13  65 N20G28    30.41R WCI   8
WRIGHT-PAT AFB PTSUNNY   23  12  64 N17       30.41R WCI   9
DAYTON GENERAL MOSUNNY   24  11  57 N17G26    30.41R WCI  11
WILMINGTON     SUNNY     22  11  62 NW17      30.38R WCI   8
$$

OHZ036-037-039>041-045>050-054>059-063>069-073>076-082>088-301600-
  CENTRAL AND SOUTHEAST OHIO

CITY           SKY/WX    TMP DP  RH WIND       PRES   REMARKS
COLUMBUS       FLURRIES  22  13  68 NW20      30.35R WCI   7
OSU AIRPORT    FLURRIES  22  12  65 NW16G25   30.35R WCI   8
BOLTON FIELD   CLOUDY    23  12  63 NW15G22   30.37R WCI  10
RICKENBACK AFB NOT AVBL
NEWARK         CLOUDY    23  10  57 NW15G29   30.33R WCI  10
MARION         PTSUNNY   19  10  68 N21       30.36R WCI   3
LANCASTER      CLOUDY    24  14  65 NW14      30.35R WCI  12
ZANESVILLE     CLOUDY    22  14  71 NW16G23   30.30R WCI   8
NEW PHILLY     FLURRIES  20  12  71 NW20G25   30.30R WCI   4
$$



USA.gov is the U.S. government's official web portal to all federal, state and local government web resources and services.